TimeCET,TemperatureF,Dew PointF,Humidity,Sea Level PressureIn,VisibilityMPH,Wind Direction,Wind SpeedMPH,Gust SpeedMPH,PrecipitationIn,Events,Conditions,WindDirDegrees,DateUTC
12:00 AM,57.2,50.0,77,29.68,6.2,WSW,13.8,-,N/A,,Partly Cloudy,240,2013-03-10 23:00:00
12:30 AM,57.2,46.4,67,29.65,6.2,WSW,11.5,-,N/A,,Partly Cloudy,250,2013-03-10 23:30:00
1:00 AM,58,40,39,29.67,9,West,15.0,,,,Scattered Clouds,270,2013-03-11 00:00:00
1:00 AM,59.0,42.8,55,29.65,6.2,West,16.1,-,N/A,,Partly Cloudy,260,2013-03-11 00:00:00
1:30 AM,59.0,42.8,55,29.65,6.2,West,18.4,-,N/A,,Partly Cloudy,260,2013-03-11 00:30:00
2:00 AM,59.0,44.6,59,29.65,6.2,West,17.3,-,N/A,,Partly Cloudy,270,2013-03-11 01:00:00
2:30 AM,59.0,44.6,59,29.65,6.2,West,21.9,-,N/A,,Partly Cloudy,270,2013-03-11 01:30:00
3:00 AM,57.2,44.6,63,29.65,6.2,West,15.0,-,N/A,,Partly Cloudy,270,2013-03-11 02:00:00
3:30 AM,57.2,44.6,63,29.65,6.2,West,17.3,28.8,N/A,,Partly Cloudy,270,2013-03-11 02:30:00
4:00 AM,55.4,44.6,67,29.62,6.2,West,17.3,-,N/A,,Partly Cloudy,260,2013-03-11 03:00:00
4:30 AM,55.4,46.4,72,29.62,6.2,West,17.3,28.8,N/A,,Partly Cloudy,260,2013-03-11 03:30:00
5:00 AM,55.4,46.4,72,29.62,6.2,West,9.2,-,N/A,,Partly Cloudy,270,2013-03-11 04:00:00
5:30 AM,55.4,46.4,72,29.65,6.2,NW,3.5,-,N/A,,Partly Cloudy,310,2013-03-11 04:30:00
6:00 AM,53.6,46.4,77,29.65,6.2,WNW,5.8,-,N/A,,Partly Cloudy,290,2013-03-11 05:00:00
6:30 AM,53.6,46.4,77,29.65,6.2,West,1.2,12.7,N/A,,Partly Cloudy,260,2013-03-11 05:30:00
7:00 AM,52,42,60,29.67,16,Calm,Calm,,,,Scattered Clouds,,2013-03-11 06:00:00
7:00 AM,53.6,46.4,77,29.65,6.2,WSW,6.9,-,N/A,,Partly Cloudy,250,2013-03-11 06:00:00
7:30 AM,53.6,46.4,77,29.65,6.2,SW,5.8,-,N/A,,Partly Cloudy,230,2013-03-11 06:30:00
8:30 AM,55.4,46.4,72,29.68,6.2,West,9.2,-,N/A,,Partly Cloudy,280,2013-03-11 07:30:00
9:00 AM,57.2,46.4,67,29.68,6.2,West,8.1,-,N/A,,Partly Cloudy,270,2013-03-11 08:00:00
9:30 AM,59.0,48.2,67,29.68,6.2,WSW,12.7,-,N/A,,Partly Cloudy,250,2013-03-11 08:30:00
10:00 AM,59.0,46.4,63,29.71,6.2,WSW,9.2,-,N/A,,Partly Cloudy,250,2013-03-11 09:00:00
10:30 AM,60.8,48.2,63,29.71,6.2,WSW,15.0,-,N/A,,Partly Cloudy,250,2013-03-11 09:30:00
11:00 AM,60.8,50.0,68,29.71,6.2,WSW,19.6,-,N/A,,Partly Cloudy,250,2013-03-11 10:00:00
11:30 AM,60.8,50.0,68,29.71,6.2,WSW,21.9,-,N/A,,Partly Cloudy,250,2013-03-11 10:30:00
12:00 PM,62.6,46.4,55,29.71,6.2,West,19.6,-,N/A,,Partly Cloudy,260,2013-03-11 11:00:00
12:30 PM,62.6,46.4,55,29.71,6.2,West,17.3,-,N/A,,Partly Cloudy,260,2013-03-11 11:30:00
1:00 PM,62,41,35,29.71,16,West,19.6,,,,Scattered Clouds,260,2013-03-11 12:00:00
1:00 PM,62.6,44.6,52,29.71,6.2,WSW,20.7,-,N/A,,Partly Cloudy,250,2013-03-11 12:00:00
1:30 PM,62.6,46.4,55,29.68,6.2,West,20.7,-,N/A,,Partly Cloudy,260,2013-03-11 12:30:00
2:00 PM,62.6,48.2,59,29.68,6.2,West,23.0,-,N/A,,Partly Cloudy,260,2013-03-11 13:00:00
2:30 PM,62.6,44.6,52,29.68,6.2,West,23.0,-,N/A,,Partly Cloudy,260,2013-03-11 13:30:00
3:00 PM,62.6,46.4,55,29.68,6.2,West,24.2,-,N/A,,Partly Cloudy,260,2013-03-11 14:00:00
3:30 PM,62.6,48.2,59,29.68,6.2,West,24.2,-,N/A,,Partly Cloudy,260,2013-03-11 14:30:00
4:00 PM,62.6,46.4,55,29.65,6.2,West,24.2,-,N/A,,Partly Cloudy,260,2013-03-11 15:00:00
4:30 PM,62.6,46.4,55,29.65,6.2,West,25.3,-,N/A,,Partly Cloudy,260,2013-03-11 15:30:00
5:00 PM,62.6,44.6,52,29.65,6.2,West,20.7,-,N/A,,Partly Cloudy,260,2013-03-11 16:00:00
5:30 PM,60.8,46.4,59,29.65,6.2,West,20.7,-,N/A,,Partly Cloudy,260,2013-03-11 16:30:00
6:00 PM,60.8,46.4,59,29.65,6.2,WSW,17.3,-,N/A,,Partly Cloudy,250,2013-03-11 17:00:00
6:30 PM,59.0,50.0,72,29.65,6.2,WSW,17.3,-,N/A,,Partly Cloudy,250,2013-03-11 17:30:00
7:00 PM,57,47,61,29.67,16,WSW,17.3,,,,Scattered Clouds,240,2013-03-11 18:00:00
7:00 PM,57.2,50.0,77,29.65,6.2,WSW,16.1,-,N/A,,Partly Cloudy,250,2013-03-11 18:00:00
7:30 PM,57.2,50.0,77,29.65,6.2,West,18.4,-,N/A,,Partly Cloudy,260,2013-03-11 18:30:00
8:00 PM,57.2,51.8,82,29.65,6.2,WSW,15.0,-,N/A,,Partly Cloudy,250,2013-03-11 19:00:00
8:30 PM,57.2,50.0,77,29.65,6.2,WSW,13.8,-,N/A,,Partly Cloudy,250,2013-03-11 19:30:00
9:00 PM,57.2,50.0,77,29.68,6.2,WSW,12.7,-,N/A,,Partly Cloudy,240,2013-03-11 20:00:00
9:30 PM,57.2,51.8,82,29.65,6.2,WSW,12.7,-,N/A,,Partly Cloudy,240,2013-03-11 20:30:00
10:00 PM,57.2,51.8,82,29.68,6.2,WSW,12.7,-,N/A,,Partly Cloudy,240,2013-03-11 21:00:00
10:30 PM,57.2,50.0,77,29.68,6.2,WSW,12.7,-,N/A,,Partly Cloudy,240,2013-03-11 21:30:00
11:00 PM,57.2,50.0,77,29.68,6.2,WSW,11.5,-,N/A,,Partly Cloudy,240,2013-03-11 22:00:00
11:30 PM,59.0,44.6,59,29.65,6.2,West,13.8,-,N/A,,Partly Cloudy,260,2013-03-11 22:30:00